• In Italy
  • List of Countries
  • For 7 days
  • Water Temperature
  • Satellite Maps
  • Weather Map
  • Weather Widgets
  • user-avatar
    Login

    Hourly Weather Kabul

    Today, 18 October, Wednesday

    Time Temperature Precipitation Wind Pressure Humidity
    00:00 +14°C° 0 mm 1 mps 608 mmHg 19%
    01:00 +13°C° 0 mm 1 mps 608 mmHg 19%
    02:00 +13°C° 0 mm 1 mps 608 mmHg 20%
    03:00 +12°C° 0 mm 1 mps 608 mmHg 20%
    04:00 +12°C° 0 mm 1 mps 608 mmHg 20%
    05:00 +12°C° 0 mm 1 mps 608 mmHg 19%
    06:00 +13°C° 0 mm 1 mps 609 mmHg 18%
    07:00 +15°C° 0 mm 1 mps 610 mmHg 17%
    08:00 +16°C° 0 mm 1 mps 611 mmHg 16%
    09:00 +18°C° 0 mm 2 mps 612 mmHg 14%
    10:00 +20°C° 0 mm 2 mps 612 mmHg 12%
    11:00 +23°C° 0 mm 2 mps 613 mmHg 9%
    12:00 +22°C° 0 mm 3 mps 613 mmHg 9%
    13:00 +24°C° 0 mm 3 mps 613 mmHg 8%
    14:00 +25°C° 0 mm 3 mps 613 mmHg 8%
    15:00 +24°C° 0 mm 3 mps 613 mmHg 9%
    16:00 +24°C° 0 mm 3 mps 612 mmHg 9%
    17:00 +23°C° 0 mm 2 mps 612 mmHg 10%
    18:00 +20°C° 0 mm 2 mps 612 mmHg 11%
    19:00 +18°C° 0 mm 2 mps 611 mmHg 13%
    20:00 +16°C° 0 mm 1 mps 611 mmHg 15%
    21:00 +16°C° 0 mm 1 mps 611 mmHg 16%
    22:00 +15°C° 0 mm 1 mps 610 mmHg 16%
    23:00 +14°C° 0 mm 1 mps 610 mmHg 17%

    Tomorrow, 19 October, Thursday

    Time Temperature Precipitation Wind Pressure Humidity
    00:00 +14°C° 0 mm 1 mps 610 mmHg 18%
    01:00 +13°C° 0 mm 1 mps 610 mmHg 19%
    02:00 +13°C° 0 mm 1 mps 609 mmHg 20%
    03:00 +13°C° 0 mm 1 mps 609 mmHg 21%
    04:00 +12°C° 0 mm 2 mps 609 mmHg 22%
    05:00 +12°C° 0 mm 2 mps 609 mmHg 23%
    06:00 +13°C° 0 mm 2 mps 610 mmHg 23%
    07:00 +14°C° 0 mm 2 mps 611 mmHg 22%
    08:00 +15°C° 0 mm 2 mps 611 mmHg 22%
    09:00 +17°C° 0 mm 2 mps 612 mmHg 20%
    10:00 +18°C° 0 mm 2 mps 612 mmHg 18%
    11:00 +20°C° 0 mm 2 mps 613 mmHg 15%
    12:00 +20°C° 0 mm 2 mps 613 mmHg 14%
    13:00 +21°C° 0 mm 2 mps 613 mmHg 13%
    14:00 +22°C° 0 mm 3 mps 613 mmHg 13%
    15:00 +21°C° 0 mm 3 mps 612 mmHg 13%
    16:00 +21°C° 0 mm 3 mps 612 mmHg 14%
    17:00 +20°C° 0 mm 3 mps 612 mmHg 15%
    18:00 +18°C° 0 mm 3 mps 612 mmHg 18%
    19:00 +17°C° 0 mm 3 mps 612 mmHg 22%
    20:00 +15°C° 0 mm 2 mps 611 mmHg 25%
    21:00 +14°C° 0 mm 2 mps 611 mmHg 27%
    22:00 +14°C° 0 mm 2 mps 611 mmHg 29%
    23:00 +13°C° 0 mm 2 mps 611 mmHg 30%

    Day after tomorrow, 20 October, Friday

    Time Temperature Precipitation Wind Pressure Humidity
    00:00 +12°C° 0 mm 2 mps 610 mmHg 31%
    01:00 +12°C° 0 mm 2 mps 610 mmHg 31%
    02:00 +10°C° 0 mm 2 mps 610 mmHg 32%
    03:00 +10°C° 0 mm 2 mps 609 mmHg 32%
    04:00 +10°C° 0 mm 1 mps 609 mmHg 32%
    05:00 +10°C° 0 mm 1 mps 609 mmHg 32%
    06:00 +11°C° 0 mm 1 mps 609 mmHg 29%
    07:00 +12°C° 0 mm 1 mps 610 mmHg 26%
    08:00 +13°C° 0 mm 1 mps 611 mmHg 24%
    09:00 +15°C° 0 mm 1 mps 611 mmHg 20%
    10:00 +16°C° 0 mm 1 mps 612 mmHg 17%
    11:00 +19°C° 0 mm 1 mps 612 mmHg 14%
    12:00 +20°C° 0 mm 1 mps 612 mmHg 12%
    13:00 +19°C° 0 mm 2 mps 612 mmHg 11%
    14:00 +20°C° 0 mm 2 mps 612 mmHg 10%
    15:00 +20°C° 0 mm 2 mps 611 mmHg 10%
    16:00 +20°C° 0 mm 2 mps 611 mmHg 10%
    17:00 +19°C° 0 mm 2 mps 611 mmHg 10%
    18:00 +18°C° 0 mm 1 mps 610 mmHg 13%
    19:00 +15°C° 0 mm 1 mps 610 mmHg 15%
    20:00 +14°C° 0 mm 1 mps 610 mmHg 17%
    21:00 +13°C° 0 mm 1 mps 609 mmHg 18%
    22:00 +12°C° 0 mm 1 mps 609 mmHg 19%
    23:00 +12°C° 0 mm 1 mps 609 mmHg 19%

    21 October, Saturday

    Time Temperature Precipitation Wind Pressure Humidity
    00:00 +11°C° 0 mm 1 mps 608 mmHg 20%
    01:00 +11°C° 0 mm 1 mps 608 mmHg 20%
    02:00 +10°C° 0 mm 1 mps 607 mmHg 20%
    03:00 +10°C° 0 mm 1 mps 607 mmHg 20%
    04:00 +9°C° 0 mm 1 mps 607 mmHg 21%
    05:00 +9°C° 0 mm 1 mps 606 mmHg 21%
    06:00 +11°C° 0 mm 1 mps 607 mmHg 19%
    07:00 +12°C° 0 mm 1 mps 608 mmHg 18%
    08:00 +14°C° 0 mm 1 mps 609 mmHg 16%
    09:00 +15°C° 0 mm 1 mps 609 mmHg 14%
    10:00 +18°C° 0 mm 1 mps 610 mmHg 12%
    11:00 +20°C° 0 mm 1 mps 610 mmHg 10%
    12:00 +19°C° 0 mm 2 mps 610 mmHg 9%
    13:00 +20°C° 0 mm 2 mps 610 mmHg 8%
    14:00 +21°C° 0 mm 2 mps 609 mmHg 8%
    15:00 +20°C° 0 mm 2 mps 609 mmHg 8%
    16:00 +20°C° 0 mm 2 mps 609 mmHg 8%
    17:00 +19°C° 0 mm 2 mps 609 mmHg 8%
    18:00 +17°C° 0 mm 2 mps 608 mmHg 9%
    19:00 +15°C° 0 mm 2 mps 608 mmHg 10%
    20:00 +14°C° 0 mm 1 mps 608 mmHg 11%
    21:00 +13°C° 0 mm 1 mps 607 mmHg 11%
    22:00 +12°C° 0 mm 1 mps 607 mmHg 12%
    23:00 +12°C° 0 mm 1 mps 607 mmHg 12%

    22 October, Sunday

    Time Temperature Precipitation Wind Pressure Humidity
    00:00 +11°C° 0 mm 1 mps 606 mmHg 13%
    01:00 +11°C° 0 mm 1 mps 606 mmHg 13%
    02:00 +10°C° 0 mm 1 mps 605 mmHg 14%
    03:00 +9°C° 0 mm 1 mps 605 mmHg 14%
    04:00 +9°C° 0 mm 1 mps 605 mmHg 15%
    05:00 +9°C° 0 mm 1 mps 605 mmHg 15%
    06:00 +10°C° 0 mm 1 mps 606 mmHg 14%
    07:00 +11°C° 0 mm 1 mps 607 mmHg 14%
    08:00 +13°C° 0 mm 1 mps 608 mmHg 13%
    09:00 +14°C° 0 mm 1 mps 608 mmHg 12%
    10:00 +16°C° 0 mm 1 mps 609 mmHg 11%
    11:00 +18°C° 0 mm 1 mps 609 mmHg 10%
    12:00 +18°C° 0 mm 2 mps 609 mmHg 9%
    13:00 +19°C° 0 mm 2 mps 609 mmHg 9%
    14:00 +19°C° 0 mm 2 mps 609 mmHg 9%
    15:00 +19°C° 0 mm 2 mps 608 mmHg 10%
    16:00 +18°C° 0 mm 2 mps 608 mmHg 10%
    17:00 +18°C° 0 mm 2 mps 608 mmHg 10%
    18:00 +16°C° 0 mm 2 mps 608 mmHg 13%
    19:00 +15°C° 0 mm 2 mps 608 mmHg 15%
    20:00 +13°C° 0 mm 1 mps 608 mmHg 18%
    21:00 +12°C° 0 mm 1 mps 608 mmHg 19%
    22:00 +12°C° 0 mm 1 mps 608 mmHg 21%
    23:00 +11°C° 0 mm 1 mps 607 mmHg 23%

    23 October, Monday

    Time Temperature Precipitation Wind Pressure Humidity
    00:00 +11°C° 0 mm 1 mps 607 mmHg 24%
    01:00 +10°C° 0 mm 1 mps 607 mmHg 24%
    02:00 +10°C° 0 mm 1 mps 607 mmHg 25%
    03:00 +10°C° 0 mm 1 mps 607 mmHg 25%
    04:00 +8°C° 0 mm 2 mps 607 mmHg 26%
    05:00 +8°C° 0 mm 2 mps 607 mmHg 26%
    06:00 +9°C° 0 mm 2 mps 608 mmHg 24%
    07:00 +10°C° 0 mm 2 mps 609 mmHg 23%
    08:00 +12°C° 0 mm 2 mps 610 mmHg 21%
    09:00 +14°C° 0 mm 2 mps 610 mmHg 19%
    10:00 +15°C° 0 mm 2 mps 611 mmHg 16%
    11:00 +18°C° 0 mm 1 mps 611 mmHg 14%
    12:00 +17°C° 0 mm 2 mps 611 mmHg 13%
    13:00 +18°C° 0 mm 2 mps 611 mmHg 12%
    14:00 +19°C° 0 mm 2 mps 611 mmHg 10%
    15:00 +19°C° 0 mm 2 mps 611 mmHg 11%
    16:00 +18°C° 0 mm 2 mps 611 mmHg 11%
    17:00 +18°C° 0 mm 2 mps 611 mmHg 11%
    18:00 +17°C° 0 mm 2 mps 611 mmHg 12%
    19:00 +15°C° 0 mm 2 mps 611 mmHg 14%
    20:00 +13°C° 0 mm 2 mps 611 mmHg 15%
    21:00 +13°C° 0 mm 2 mps 611 mmHg 16%
    22:00 +12°C° 0 mm 2 mps 610 mmHg 17%
    23:00 +12°C° 0 mm 2 mps 610 mmHg 17%
    Show more